[[{"header":{"parameterUnit":"m.s-1","parameterCategory":1,"la1":30.2991,"la2":30.254,"lo1":-89.0895,"lo2":-89.0444,"dy":0.0017,"dx":0.0017,"nx":28,"ny":28,"refTime":"2025-07-11T03:00:00:Z","depth":0,"parameterNumber":2,"parameterNumberName":"U-component_of_WINDS"},"data":[0,0,0,0,0,0,0,0,0,0,0,0,0,0,0,0,0,0,0,0,0,0,0,0,0,0,0,0,0,0,0,0,0,0,0,0,0,0,0,0,0,0,0,0,0,0,0,0,0,0,0,0,0,0,0,0,0,0,3.2126,3.2127,0,3.2213,3.2214,3.2215,3.2139,3.2136,3.2132,3.2129,3.222,3.2225,3.223,0,0,0,0,0,0,0,0,0,0,0,0,0,3.1893,3.1898,3.2125,3.2127,3.2128,3.2212,3.2214,3.2215,3.2139,3.2135,3.2132,3.2128,3.2218,3.2224,3.2231,0,0,0,0,0,0,0,0,0,0,0,0,0,3.1989,3.19,3.2125,3.21,3.2099,3.2212,3.2214,3.2215,3.214,3.2135,3.2131,3.2126,3.2216,3.2224,3.2232,3.2375,0,0,3.2256,3.2259,0,0,0,0,0,0,0,0,3.1983,3.1997,3.2103,3.2102,3.2101,3.216,3.2165,3.2269,3.2141,3.2124,3.2129,3.2124,3.2204,3.2212,3.2239,3.2379,3.2383,3.2257,3.2261,3.2265,3.2267,0,0,0,0,0,0,0,3.1977,3.1993,3.216,3.2104,3.2103,3.2084,3.2093,3.2184,3.2189,3.2125,3.212,3.2131,3.2202,3.2232,3.2241,3.2384,3.2256,3.2263,3.2268,3.2272,3.2644,3.2648,0,0,0,0,0,0,3.1973,3.1988,3.2157,3.2163,3.2029,3.2092,3.2102,3.2146,3.2188,3.219,3.2135,3.2128,3.222,3.2231,3.2244,3.2413,3.2265,3.2272,3.2277,3.2639,3.2645,3.265,0,0,0,0,0,0,3.1968,3.1989,3.2154,3.2074,3.2093,3.2101,3.2151,3.215,3.2179,3.2196,3.2196,3.2164,3.2217,3.2232,3.2342,3.2415,3.2276,3.2283,3.2633,3.264,3.2647,3.2753,0,0,0,0,0,0,3.1962,3.1987,3.2042,3.2076,3.2098,3.2251,3.2156,3.2155,3.2193,3.2184,3.2223,3.2225,3.2214,3.2331,3.235,3.2423,3.2289,3.2626,3.2636,3.2645,3.2743,3.2763,3.278,0,0,0,0,0,3.1954,3.2069,3.2045,3.2066,3.2167,3.2256,3.2268,3.2254,3.2199,3.2254,3.2264,3.2224,3.2404,3.2342,3.2364,3.244,3.2621,3.2633,3.2644,3.2734,3.2759,3.278,0,0,0,0,0,0,3.2045,3.2073,3.2047,3.2177,3.2214,3.2243,3.2311,3.2281,3.2335,3.2324,3.2303,3.2313,3.2428,3.2445,3.2377,3.258,3.2504,3.252,3.2565,3.2589,3.2607,3.26,3.2296,0,0,0,0,0,3.208,3.215,3.2171,3.2283,3.2303,3.2304,3.2342,3.2328,3.2366,3.2381,3.24,3.2439,3.2503,3.2547,3.2608,3.2745,3.2752,3.2808,3.2827,3.2842,3.2856,3.2928,3.2953,3.2688,3.2688,3.2688,0,0,3.2153,3.2177,3.2223,3.2302,3.2329,3.2401,3.2318,3.2399,3.2452,3.2394,3.2498,3.2513,3.2555,3.2678,3.2734,3.2696,3.2931,3.2857,3.2869,3.2875,3.2943,3.2968,3.299,3.2696,3.2694,3.2693,0,0,3.2323,3.2349,3.2445,3.2473,3.2515,3.2515,3.2538,3.2571,3.2578,3.2683,3.264,3.2703,3.2816,3.2847,3.2877,3.3058,3.3022,3.3078,3.3176,3.3247,3.3268,3.3286,3.3349,3.3372,3.3092,3.3092,3.3093,0,3.2409,3.2517,3.2498,3.2581,3.2617,3.2566,3.2662,3.2691,3.2751,3.2777,3.2733,3.2873,3.2897,3.3027,3.3071,3.3097,3.3122,3.3074,3.3266,3.3284,3.3301,3.3361,3.3385,3.3099,3.3098,3.3098,3.3097,0,3.262,3.2695,3.2767,3.2825,3.2869,3.2958,3.2952,3.2999,3.298,3.2984,3.309,3.3117,3.3182,3.3212,3.3195,3.3339,3.3314,3.3269,3.3192,3.3333,3.3389,3.3412,3.3108,3.3106,3.3104,3.3102,0,0,3.2851,3.2896,3.2923,3.2948,3.299,3.3047,3.3134,3.3196,3.3236,3.3279,3.335,3.3446,3.3404,3.3439,3.3425,3.3487,3.3626,3.3434,3.3434,3.3468,3.3785,3.3818,3.3845,3.3603,3.3607,3.361,3.3781,0,3.3022,3.3172,3.3157,3.33,3.3368,3.332,3.3395,3.3429,3.3435,3.3493,3.35,3.3567,3.3508,3.3528,3.3587,3.3597,3.3689,3.3584,3.3669,3.3672,3.3659,3.3875,3.391,3.407,3.3803,3.3807,3.3809,0,3.3243,3.3292,3.3441,3.3471,3.3499,3.3567,3.3622,3.3679,3.3715,3.3715,3.3753,3.3728,3.3814,3.3735,3.3853,3.3782,3.3815,3.3825,3.383,3.3838,3.3749,3.3887,3.4121,3.4145,3.3844,3.3841,3.3839,0,3.3395,3.3499,3.3601,3.3624,3.3662,3.371,3.3728,3.376,3.3798,3.3846,3.387,3.3929,3.396,3.4006,3.3996,3.394,3.4117,3.4037,3.4118,3.4119,3.4158,3.4155,3.44,3.4181,3.418,3.418,3.4179,0,3.3588,3.3681,3.367,3.3733,3.3835,3.3816,3.3918,3.393,3.3958,3.4022,3.3985,3.4045,3.4029,3.4089,3.4082,3.4181,3.4196,3.4197,3.4194,3.4201,3.42,3.4222,3.421,3.4186,3.4185,3.4183,3.4182,0,3.3776,3.3772,3.388,3.3906,3.3915,3.3989,3.4011,3.407,3.4072,3.4153,3.4171,3.4175,3.4244,3.4238,3.4316,3.4311,3.4432,3.4417,3.442,3.4416,3.4497,3.449,3.4764,3.4799,3.4558,3.456,3.4562,0,3.3899,3.3969,3.4002,3.4041,3.4062,3.4127,3.4165,3.4149,3.419,3.4236,3.4289,3.4354,3.4405,3.4517,3.4527,3.4585,3.457,3.4662,3.4579,3.4582,3.4571,3.4566,3.4573,3.4679,3.4682,3.4684,3.4686,0,3.4117,3.4111,3.4167,3.4223,3.4269,3.4312,3.4352,3.4386,3.4374,3.4422,3.4491,3.453,3.4609,3.4673,3.4729,3.4747,3.4715,3.4712,3.4733,3.474,3.4739,3.474,3.4464,3.4706,3.4704,3.4702,3.4701,3.47,3.4276,3.4335,3.4367,3.443,3.4458,3.4495,3.4551,3.4559,3.4617,3.4678,3.4665,3.4743,3.4776,3.4847,3.487,3.4931,3.4897,3.4929,3.4937,3.4945,3.4954,3.473,3.4941,3.494,3.494,3.4939,3.4939,0,3.4491,3.4509,3.4567,3.4622,3.4672,3.4636,3.4677,3.4721,3.479,3.4823,3.4873,3.4952,3.5014,3.5028,3.5087,3.5133,3.5119,3.5149,3.5145,3.5149,3.4981,3.4956,3.5159,3.5159,3.5159,3.5158,3.5158,3.5158,3.4609,3.4707,3.4705,3.4816,3.4833,3.4908,3.4934,3.4968,3.4994,3.5084,3.5135,3.5143,3.5168,3.5228,3.5284,3.5286,3.5309,3.5345,3.5341,3.5184,3.5162,3.5141,3.5117,3.535,3.535,3.5504,3.5506,3.5507]},{"header":{"parameterUnit":"m.s-1","parameterCategory":1,"la1":30.2991,"la2":30.254,"lo1":-89.0895,"lo2":-89.0444,"dy":0.0017,"dx":0.0017,"nx":28,"ny":28,"refTime":"2025-07-11T03:00:00:Z","depth":0,"parameterNumber":3,"parameterNumberName":"V-component_of_WINDS"},"data":[0,0,0,0,0,0,0,0,0,0,0,0,0,0,0,0,0,0,0,0,0,0,0,0,0,0,0,0,0,0,0,0,0,0,0,0,0,0,0,0,0,0,0,0,0,0,0,0,0,0,0,0,0,0,0,0,0,0,-0.187,-0.1871,0,-0.193,-0.193,-0.1931,-0.1985,-0.1985,-0.1986,-0.1987,-0.2049,-0.205,-0.2051,0,0,0,0,0,0,0,0,0,0,0,0,0,-0.1805,-0.1806,-0.187,-0.1871,-0.1871,-0.1929,-0.193,-0.1931,-0.1985,-0.1986,-0.1986,-0.1987,-0.2048,-0.205,-0.2051,0,0,0,0,0,0,0,0,0,0,0,0,0,-0.1846,-0.1806,-0.187,-0.1905,-0.1909,-0.1929,-0.193,-0.1931,-0.1985,-0.1986,-0.1987,-0.1987,-0.2048,-0.205,-0.2051,-0.2042,0,0,-0.2056,-0.2057,0,0,0,0,0,0,0,0,-0.1843,-0.1848,-0.1899,-0.1903,-0.1907,-0.1951,-0.193,-0.1968,-0.1984,-0.1956,-0.1987,-0.1988,-0.2015,-0.202,-0.2029,-0.2045,-0.2047,-0.2056,-0.2057,-0.2058,-0.2058,0,0,0,0,0,0,0,-0.1841,-0.1846,-0.1894,-0.19,-0.1905,-0.1919,-0.1926,-0.1938,-0.198,-0.1958,-0.1962,-0.1969,-0.2018,-0.2027,-0.2031,-0.2048,-0.2056,-0.2057,-0.2058,-0.2059,-0.206,-0.2059,0,0,0,0,0,0,-0.1832,-0.1843,-0.1892,-0.1895,-0.1877,-0.1919,-0.1927,-0.1936,-0.198,-0.1987,-0.1968,-0.1971,-0.2024,-0.2029,-0.2033,-0.2025,-0.2058,-0.2059,-0.206,-0.2061,-0.206,-0.2059,0,0,0,0,0,0,-0.183,-0.1836,-0.1889,-0.187,-0.1878,-0.1919,-0.1929,-0.1936,-0.1946,-0.1987,-0.1995,-0.197,-0.2025,-0.2031,-0.2039,-0.2028,-0.206,-0.2061,-0.2062,-0.2061,-0.206,-0.2009,0,0,0,0,0,0,-0.1828,-0.1835,-0.1831,-0.187,-0.1879,-0.1893,-0.1928,-0.1937,-0.1948,-0.1953,-0.199,-0.1998,-0.2026,-0.2037,-0.2041,-0.2031,-0.2063,-0.2063,-0.2062,-0.206,-0.2012,-0.2006,-0.2001,0,0,0,0,0,-0.1826,-0.1814,-0.183,-0.1836,-0.1875,-0.1893,-0.1898,-0.1931,-0.1947,-0.1944,-0.1971,-0.1996,-0.2029,-0.2037,-0.2042,-0.2032,-0.2064,-0.2062,-0.206,-0.2014,-0.2007,-0.2001,0,0,0,0,0,0,-0.1773,-0.182,-0.1838,-0.1839,-0.1861,-0.1902,-0.1898,-0.1922,-0.1941,-0.1944,-0.1985,-0.1993,-0.1997,-0.2016,-0.2024,-0.2026,-0.205,-0.2049,-0.2013,-0.2007,-0.2002,-0.1997,-0.2064,0,0,0,0,0,-0.1761,-0.1771,-0.1812,-0.1809,-0.1819,-0.1857,-0.1866,-0.1889,-0.1914,-0.1924,-0.1951,-0.1975,-0.1991,-0.2,-0.2017,-0.2015,-0.2024,-0.2011,-0.2006,-0.2001,-0.1999,-0.2001,-0.1996,-0.2052,-0.2052,-0.2052,0,0,-0.1737,-0.1764,-0.1768,-0.1799,-0.1819,-0.1829,-0.1864,-0.1873,-0.1881,-0.1926,-0.1935,-0.1956,-0.1985,-0.1989,-0.1992,-0.2005,-0.1986,-0.1999,-0.1995,-0.1995,-0.1998,-0.1993,-0.1988,-0.2051,-0.2051,-0.2051,0,0,-0.1699,-0.172,-0.172,-0.1739,-0.177,-0.1795,-0.1795,-0.1832,-0.1848,-0.1858,-0.1892,-0.1903,-0.1929,-0.1948,-0.1962,-0.1932,-0.1957,-0.1937,-0.1908,-0.1909,-0.1905,-0.1901,-0.189,-0.1886,-0.1935,-0.1935,-0.1935,0,-0.1665,-0.1681,-0.1717,-0.1724,-0.1737,-0.1778,-0.1778,-0.1796,-0.183,-0.1838,-0.1853,-0.1887,-0.191,-0.1918,-0.1911,-0.1921,-0.1923,-0.1932,-0.1902,-0.1899,-0.1896,-0.1887,-0.1882,-0.1933,-0.1933,-0.1933,-0.1933,0,-0.1638,-0.1649,-0.1645,-0.1677,-0.169,-0.1693,-0.1731,-0.1739,-0.1763,-0.1787,-0.1797,-0.1826,-0.185,-0.1854,-0.1877,-0.1867,-0.1874,-0.1895,-0.1919,-0.1887,-0.1879,-0.1876,-0.1929,-0.193,-0.193,-0.1931,0,0,-0.1565,-0.1618,-0.1616,-0.1632,-0.1669,-0.1678,-0.1685,-0.1708,-0.1714,-0.1737,-0.1744,-0.1766,-0.1786,-0.1801,-0.1827,-0.1828,-0.1803,-0.1849,-0.185,-0.1839,-0.1794,-0.1777,-0.1772,-0.182,-0.182,-0.1819,-0.1792,0,-0.1532,-0.1545,-0.1579,-0.1581,-0.1592,-0.1632,-0.1638,-0.1662,-0.1685,-0.1699,-0.1725,-0.174,-0.1765,-0.1775,-0.1778,-0.1805,-0.1794,-0.1808,-0.1827,-0.1827,-0.1817,-0.1768,-0.175,-0.1723,-0.1789,-0.1788,-0.1788,0,-0.1495,-0.1515,-0.1519,-0.1557,-0.1562,-0.1567,-0.1591,-0.1603,-0.1632,-0.1649,-0.1667,-0.1695,-0.1705,-0.1729,-0.1744,-0.1752,-0.1762,-0.1777,-0.1777,-0.1779,-0.1804,-0.1768,-0.1715,-0.171,-0.1783,-0.1783,-0.1784,0,-0.1441,-0.147,-0.1476,-0.1488,-0.1532,-0.1534,-0.1553,-0.1583,-0.1595,-0.1617,-0.1625,-0.1648,-0.166,-0.1678,-0.1712,-0.1726,-0.1723,-0.175,-0.1738,-0.1737,-0.1734,-0.1734,-0.168,-0.1742,-0.1742,-0.1742,-0.1742,0,-0.14,-0.1401,-0.1452,-0.1456,-0.1458,-0.1498,-0.1499,-0.1522,-0.1548,-0.1558,-0.1595,-0.1603,-0.1648,-0.1662,-0.1689,-0.1698,-0.1703,-0.1718,-0.1725,-0.1714,-0.1712,-0.172,-0.1723,-0.1741,-0.1741,-0.1742,-0.1742,0,-0.134,-0.1374,-0.1383,-0.1425,-0.1436,-0.1436,-0.1472,-0.1477,-0.1504,-0.1515,-0.152,-0.1562,-0.158,-0.1617,-0.1645,-0.1664,-0.1666,-0.1679,-0.1656,-0.166,-0.1646,-0.1646,-0.1595,-0.1591,-0.1656,-0.1655,-0.1654,0,-0.131,-0.1312,-0.1354,-0.1363,-0.138,-0.1394,-0.1406,-0.1446,-0.1458,-0.1492,-0.1493,-0.1515,-0.1534,-0.1561,-0.1594,-0.1617,-0.163,-0.1611,-0.1634,-0.1623,-0.163,-0.1629,-0.1629,-0.1605,-0.1604,-0.1604,-0.1603,0,-0.1255,-0.1272,-0.1289,-0.1312,-0.1326,-0.1346,-0.1368,-0.1374,-0.1419,-0.143,-0.145,-0.1464,-0.1494,-0.1515,-0.1542,-0.1563,-0.159,-0.1596,-0.1594,-0.1583,-0.1569,-0.1576,-0.1641,-0.1597,-0.1597,-0.1598,-0.1598,-0.1598,-0.1209,-0.1213,-0.1243,-0.1261,-0.1282,-0.1302,-0.1309,-0.1337,-0.1353,-0.138,-0.1403,-0.142,-0.1451,-0.1491,-0.151,-0.1524,-0.1538,-0.1535,-0.1535,-0.1533,-0.1529,-0.1567,-0.153,-0.153,-0.153,-0.153,-0.1531,0,-0.1155,-0.1177,-0.1193,-0.1223,-0.1237,-0.1262,-0.1289,-0.1299,-0.1313,-0.1339,-0.1358,-0.138,-0.1401,-0.1437,-0.1461,-0.1466,-0.1479,-0.1471,-0.147,-0.1475,-0.1516,-0.1514,-0.146,-0.146,-0.146,-0.146,-0.146,-0.146,-0.1129,-0.1136,-0.1157,-0.1176,-0.1198,-0.1215,-0.1228,-0.1247,-0.1268,-0.1291,-0.1309,-0.1332,-0.1362,-0.1389,-0.141,-0.142,-0.1427,-0.1414,-0.1428,-0.1465,-0.1472,-0.1478,-0.1477,-0.1416,-0.1416,-0.1386,-0.1386,-0.1386]}]]